Reading, PA

8:14 AM EDT on July 22, 2017 (GMT -0400)
Reading Regional-Spaatz

Weather History for KRDG - August, 2013

Change the Weather History Date:

Tuesday, August 20, 2013

  Actual Average Record
Temperature  
Mean Temperature 74 °F 73 °F  
Max Temperature 86 °F 83 °F 98 °F (1983)
Min Temperature 61 °F 62 °F 49 °F (1998)
Degree Days  
Heating Degree Days 0 0  
Month to date heating degree days 0 0  
Since 1 June heating degree days 2 25  
Since 1 July heating degree days 0 1  
Cooling Degree Days 9 8  
Month to date cooling degree days 130 174  
Year to date cooling degree days 879 726  
Since 1 June cooling degree days 780 666  
Growing Degree Days 22 (Base 50)    
Moisture  
Dew Point 63 °F    
Average Humidity 76    
Maximum Humidity 100    
Minimum Humidity 51    
Precipitation  
Precipitation 0.00 in 0.13 in 1.79 in (1894)
Month to date precipitation 3.55 2.34  
Year to date precipitation 28.22 27.66  
Sea Level Pressure  
Sea Level Pressure 30.12 in    
Wind  
Wind Speed 2 mph (West)    
Max Wind Speed 10 mph    
Max Gust Speed 14 mph    
Visibility 4 miles    
Events Fog    
T = Trace of Precipitation, MM = Missing Value Source: NWS Daily Summary

Daily Weather History Graph

Daily Weather History Graph

Search for Another Location

Airport or City:

Trip Planner

Search our weather history database for the weather conditions in past years. The results will help you decide how hot, cold, wet, or windy it might be!

Date:

Astronomy

Aug. 20, 2013 Rise Set
Actual Time 6:19 AM EDT 7:53 PM EDT
Civil Twilight 5:51 AM EDT 8:22 PM EDT
Nautical Twilight 5:16 AM EDT 8:57 PM EDT
Astronomical Twilight 4:39 AM EDT 9:33 PM EDT
Moon 7:23 PM EDT (8/20) 5:47 AM EDT (8/20)
Length of Visible Light 14h 31m
Length of Day
13h 33m
Full, 100% of the Moon is Illuminated
Aug 20
Full
Aug 20
Full
Aug 28
Last Quarter
Sep 5
New
Sep 12
First Quarter

Hourly Weather History & Observations

Time (EDT) Temp. Heat Index Dew Point Humidity Pressure Visibility Wind Dir Wind Speed Gust Speed Precip Events Conditions
12:54 AM 66.0 °F - 63.0 °F 90% 30.11 in 7.0 mi Calm Calm - N/A   Clear
1:54 AM 66.0 °F - 64.0 °F 93% 30.10 in 9.0 mi Calm Calm - N/A   Clear
2:51 AM 64.4 °F - 62.6 °F 94% 30.09 in 2.5 mi Calm Calm - N/A   Partly Cloudy
2:54 AM 64.0 °F - 62.1 °F 93% 30.10 in 1.5 mi Calm Calm - N/A   Partly Cloudy
2:59 AM 64.4 °F - 62.6 °F 94% 30.09 in 0.8 mi Calm Calm - N/A   Mist
3:04 AM 62.6 °F - 62.6 °F 100% 30.09 in 1.2 mi Calm Calm - N/A   Partly Cloudy
3:10 AM 62.6 °F - 62.6 °F 100% 30.09 in 3.0 mi Calm Calm - N/A   Partly Cloudy
3:54 AM 64.0 °F - 61.0 °F 90% 30.10 in 10.0 mi Calm Calm - N/A   Clear
4:23 AM 62.6 °F - 60.8 °F 94% 30.09 in 5.0 mi Calm Calm - N/A   Scattered Clouds
4:35 AM 62.6 °F - 60.8 °F 94% 30.09 in 0.8 mi Calm Calm - N/A   Mist
4:54 AM 64.0 °F - 63.0 °F 96% 30.10 in 1.5 mi Calm Calm - N/A   Scattered Clouds
5:02 AM 62.6 °F - 62.6 °F 100% 30.09 in 5.0 mi Calm Calm - N/A   Partly Cloudy
5:06 AM 62.6 °F - 62.6 °F 100% 30.09 in 1.0 mi Calm Calm - N/A   Mist
5:10 AM 62.6 °F - 62.6 °F 100% 30.09 in 0.5 mi Calm Calm - N/A Fog Fog
5:19 AM 62.6 °F - 60.8 °F 94% 30.09 in 1.0 mi Calm Calm - N/A   Mist
5:24 AM 62.6 °F - 60.8 °F 94% 30.09 in 3.0 mi Calm Calm - N/A   Scattered Clouds
5:36 AM 62.6 °F - 60.8 °F 94% 30.09 in 1.5 mi Calm Calm - N/A   Partly Cloudy
5:44 AM 62.6 °F - 60.8 °F 94% 30.10 in 1.0 mi Calm Calm - N/A   Mist
5:48 AM 62.6 °F - 60.8 °F 94% 30.10 in 2.0 mi Calm Calm - N/A   Clear
5:54 AM 62.1 °F - 60.1 °F 93% 30.11 in 3.0 mi Calm Calm - N/A   Clear
6:03 AM 62.6 °F - 60.8 °F 94% 30.11 in 4.0 mi Calm Calm - N/A   Scattered Clouds
6:13 AM 62.6 °F - 60.8 °F 94% 30.11 in 3.0 mi Calm Calm - N/A   Mostly Cloudy
6:17 AM 62.6 °F - 60.8 °F 94% 30.11 in 1.8 mi Calm Calm - N/A   Mostly Cloudy
6:25 AM 62.6 °F - 62.6 °F 100% 30.11 in 0.5 mi Calm Calm - N/A Fog Fog
6:42 AM 62.6 °F - 60.8 °F 94% 30.12 in 1.0 mi Calm Calm - N/A   Mist
6:54 AM 61.0 °F - 60.1 °F 97% 30.14 in 0.8 mi Calm Calm - N/A   Mist
6:59 AM 62.6 °F - 60.8 °F 94% 30.12 in 0.2 mi Calm Calm - N/A Fog Fog
7:15 AM 62.6 °F - 60.8 °F 94% 30.13 in 0.5 mi Calm Calm - N/A Fog Fog
7:25 AM 62.6 °F - 60.8 °F 94% 30.13 in 0.8 mi Calm Calm - N/A   Mist
7:38 AM 64.4 °F - 62.6 °F 94% 30.14 in 2.0 mi Calm Calm - N/A   Overcast
7:47 AM 64.4 °F - 62.6 °F 94% 30.14 in 0.5 mi Calm Calm - N/A   Overcast
7:54 AM 64.9 °F - 64.0 °F 97% 30.15 in 0.5 mi Calm Calm - N/A   Overcast
8:07 AM 64.4 °F - 64.4 °F 100% 30.14 in 0.2 mi Calm Calm - N/A Fog Fog
8:30 AM 66.2 °F - 64.4 °F 94% 30.15 in 0.2 mi Calm Calm - N/A Fog Fog
8:54 AM 66.0 °F - 64.9 °F 96% 30.17 in 0.2 mi Calm Calm - N/A Fog Fog
9:33 AM 68.0 °F - 66.2 °F 94% 30.16 in 1.0 mi Calm Calm - N/A   Overcast
9:54 AM 71.1 °F - 66.0 °F 84% 30.17 in 3.0 mi Calm Calm - N/A   Overcast
10:14 AM 73.4 °F - 66.2 °F 78% 30.16 in 6.0 mi Calm Calm - N/A   Haze
10:54 AM 77.0 °F - 69.1 °F 76% 30.17 in 10.0 mi West 3.5 mph - N/A   Clear
11:54 AM 80.1 °F 82.7 °F 68.0 °F 67% 30.16 in 10.0 mi NNW 3.5 mph - N/A   Clear
12:54 PM 84.0 °F 87.8 °F 69.1 °F 61% 30.14 in 10.0 mi Variable 3.5 mph - N/A   Scattered Clouds
1:54 PM 84.9 °F 87.1 °F 66.0 °F 53% 30.14 in 10.0 mi WSW 3.5 mph - N/A   Clear
2:54 PM 84.9 °F 87.6 °F 66.9 °F 55% 30.12 in 10.0 mi SW 6.9 mph - N/A   Scattered Clouds
3:54 PM 84.9 °F 86.6 °F 64.9 °F 51% 30.11 in 10.0 mi WSW 4.6 mph - N/A   Clear
4:54 PM 84.9 °F 86.1 °F 64.0 °F 49% 30.11 in 10.0 mi WSW 9.2 mph - N/A   Clear
5:54 PM 82.9 °F 84.0 °F 63.0 °F 51% 30.11 in 10.0 mi WSW 6.9 mph - N/A   Clear
6:54 PM 82.0 °F 83.1 °F 63.0 °F 52% 30.11 in 10.0 mi WSW 4.6 mph - N/A   Clear
7:54 PM 79.0 °F - 64.0 °F 60% 30.12 in 10.0 mi West 3.5 mph - N/A   Clear
8:54 PM 75.0 °F - 66.0 °F 73% 30.14 in 10.0 mi Calm Calm - N/A   Clear
9:54 PM 73.0 °F - 66.0 °F 79% 30.15 in 10.0 mi Calm Calm - N/A   Partly Cloudy
10:54 PM 70.0 °F - 64.9 °F 84% 30.16 in 10.0 mi Calm Calm - N/A   Clear
11:54 PM 68.0 °F - 64.0 °F 87% 30.16 in 10.0 mi Calm Calm - N/A   Clear